Regional Weather Roundup
Issued by NWS

Home | Current Version | Previous Version | Text Only | Print | Product List | Glossary Off
Versions: 1 2 3 4 5 6 7 8 9 10 11 12 13 14 15 16 17 18 19 20 21 22 23 24 25 26 27 28 29 30 31 32 33 34 35 36 37 38 39 40 41 42 43 44 45 46 47 48 49 50

000
ASUS43 KLOT 270808
RWRIL

ILLINOIS REGIONAL WEATHER ROUNDUP
NATIONAL WEATHER SERVICE CHICAGO/ROMEOVILLE IL
300 AM CDT MON APR 27 2015

NOTE: "FAIR" INDICATES FEW OR NO CLOUDS BELOW 12,000 FEET WITH NO
SIGNIFICANT WEATHER AND/OR OBSTRUCTIONS TO VISIBILITY.

* THESE STATIONS ARE NOT UNDER NWS QUALITY CONTROL. THEY ALSO MAY NOT
  REPORT WEATHER SUCH AS PRECIPITATION OR FOG.

ILZ001-002-007-009-015-016-024-270900-
NORTHWEST ILLINOIS

CITY           SKY/WX    TMP DP  RH WIND       PRES   REMARKS
MOLINE         CLEAR     33  31  92 E3        30.07R
STERLING*      CLEAR     37  32  81 NE5       30.09F WCI  34
SAVANNA*       CLEAR     38  30  72 NE5       30.10S WCI  35
$$

ILZ003-004-008-010-011-017-018-270900-
NORTH CENTRAL ILLINOIS

CITY           SKY/WX    TMP DP  RH WIND       PRES   REMARKS
ROCKFORD       CLEAR     38  28  67 N7        30.12R WCI  33
FREEPORT*      CLEAR     36  27  70 CALM      30.12S
ROCHELLE*      CLEAR     35  29  80 CALM      30.09F
DE KALB*       CLEAR     35  29  80 NE8       30.09R WCI  28
PERU*          CLEAR     40  32  74 NE7       30.08F
$$

ILZ005-006-012>014-019>023-270900-
NORTHEAST ILLINOIS

CITY           SKY/WX    TMP DP  RH WIND       PRES   REMARKS
CHICAGO-OHARE  CLEAR     40  30  67 N8        30.06R
CHICAGO-MIDWAY CLEAR     44  32  62 N13       30.06R
AURORA         CLEAR     40  30  67 N8        30.07R
LANSING*       CLEAR     41  32  70 N7        30.04S
JOLIET*        CLEAR     42  32  68 N6        30.06S
WAUKEGAN       CLEAR     38  30  73 N6        30.06S WCI  33
DUPAGE AIRPORT CLEAR     39  30  70 N9        30.06S WCI  33
KANKAKEE*      CLEAR     40  32  72 NW6       30.04S
WHEELING       CLEAR     39  30  70 N6        30.08S WCI  35
MORRIS*        CLEAR     37  30  75 N3        30.04R
ROMEOVILLE*    CLEAR     39  30  69 N9        30.05S WCI  33
NORTHERLY ISL    N/A     43  34  70 NW13        N/A
$$

LMZ740>746-270900-
SOUTHERN LAKE MICHIGAN

STATION/POSITION SKY/WX   TEMP    WIND        PRES    VSBY  WAVE
                          AIR SEA DIR/SP/G                  HT/PER
                          (F)     (DEG/KT/KT) (MB)    (MI)  (FT/S)
HARRISON CRIB              41     350/ 20/ 24   N/A
BURNHAM HARBOR             42     350/ 12/ 16   N/A
CALUMET HARBOR             42     330/ 12/ 19   N/A
BURNS HARBOR               42     350/ 17/ 20 1016.9F
MICHIGAN CITY              41     350/ 17/ 21   N/A
MICHIGAN CITY 6N           41 45  360/ 16/ 19   N/A           4/ 5
$$

ILZ025>027-034>036-040-047-049-050-058-095>099-270900-
WEST-CENTRAL ILLINOIS

CITY           SKY/WX    TMP DP  RH WIND       PRES   REMARKS
QUINCY         CLEAR     40  34  79 CALM      30.06R
GALESBURG*     FAIR      35  32  90 NW3       30.05S
MACOMB*        CLEAR     37  35  90 CALM      30.07F
JACKSONVILLE*  CLEAR     38  35  89 S3        30.06R
PITTSFIELD*    CLEAR     40  36  86 W3        30.06S
$$

ILZ028>032-037-038-041>044-048-051>054-059>061-270900-
CENTRAL ILLINOIS

CITY           SKY/WX    TMP DP  RH WIND       PRES   REMARKS
PONTIAC        CLEAR     38  31  77 NW6       30.06S WCI  33
BLOOMINGTON    CLEAR     40  30  67 N6        30.06F
DECATUR        CLEAR     39  29  67 N7        30.03F WCI  34
PEORIA         CLEAR     40  33  76 CALM      30.06S
LACON*         CLEAR     35  32  88 CALM      30.07S
LINCOLN*       CLEAR     38  35  89 CALM      30.05F
SPRINGFIELD    CLEAR     37  34  89 N5        30.03F WCI  33
TAYLORVILLE    CLEAR     36  32  87 N8        30.03S WCI  29
$$

ILZ033-039-045-046-055>057-062-063-270900-
EAST-CENTRAL ILLINOIS

CITY           SKY/WX    TMP DP  RH WIND       PRES   REMARKS
CHAMPAIGN      CLEAR     39  28  64 N10       30.02F WCI  32
DANVILLE*      CLEAR     37  30  75 NW8       29.98F WCI  31
RANTOUL*       CLEAR     41  30  65 N10       30.03S
MATTOON        CLEAR     36  29  75 NW6       30.00F WCI  31
PARIS*         CLEAR     39  31  74 NW7       30.01S WCI  34
$$

ILZ079-100>102-270900-
SOUTHWEST ILLINOIS

CITY           SKY/WX    TMP DP  RH WIND       PRES   REMARKS
ALTON          CLEAR     40  37  89 CALM      30.04R
BELLEVILLE     CLEAR     41  36  83 NW3       30.03R
CAHOKIA*       CLEAR     41  36  82 CALM      30.04S
SPARTA*        CLEAR     43  34  70 N3        30.03S
$$

ILZ064>066-069>071-074>076-080>082-084>086-088>090-092>094-270900-
SOUTH-CENTRAL ILLINOIS

CITY           SKY/WX    TMP DP  RH WIND       PRES   REMARKS
CARBONDALE     CLEAR     43  35  73 CALM      30.00F
CAIRO*         CLEAR     48  37  66 N8        29.98R
EFFINGHAM*     CLEAR     42  28  59 NW3       30.03R
MARION         CLEAR     43  36  75 CALM      30.00S
MT. VERNON     CLEAR     43  28  56 N3        30.01S
CENTRALIA*     CLEAR     37  32  84 CALM      30.02S
SALEM*         CLEAR     42  33  71 CALM      30.01F
METROPOLIS*    CLEAR     46  38  73 N5        29.97S
$$

ILZ067-068-072-073-078-083-087-091-270900-
SOUTHEAST ILLINOIS

CITY           SKY/WX    TMP DP  RH WIND       PRES   REMARKS
LAWRENCEVILLE  CLEAR     43  31  62 N7        29.99S
FLORA*         CLEAR     41  32  71 N5        30.01S
FAIRFIELD*     CLEAR     43  32  66 N5        30.00R
HARRISBURG*    CLEAR     44  34  69 N5        30.00S
ROBINSON*      CLEAR     41  32  71 N8        30.00S
CARMI*         CLEAR     42  32  68 N7        29.99S
$$

ABBREVIATIONS USED IN REMARKS
   TC - TEMPERATURE IN CELSIUS
  WCI - WIND CHILL INDEX
   HX - HEAT INDEX
  VSB - VISIBILITY
$$




USA.gov is the U.S. government's official web portal to all federal, state and local government web resources and services.